| time (UTC) | temp C | wind direction | speed KPH | gust KPH | rain 1hr cm | rain 24hr cm | rain mn cm | humidity % | barometer mb |
| 20260902192427 | 17 | 186 | 0.0 | 0.0 | 0.00 | 0.00 | 0.00 | 82 | 1043.1 |
| 20260902191927 | 17 | 186 | 0.0 | 0.0 | 0.00 | 0.00 | 0.00 | 81 | 1043.2 |
| 20260902191426 | 17 | 181 | 0.0 | 0.0 | 0.00 | 0.00 | 0.00 | 81 | 1043.2 |
| 20260902190926 | 17 | 175 | 0.0 | 0.0 | 0.00 | 0.00 | 0.00 | 79 | 1043.3 |
| 20260902190426 | 18 | 175 | 0.0 | 0.0 | 0.00 | 0.00 | 0.00 | 78 | 1043.1 |
| 20260902185925 | 18 | 175 | 0.0 | 0.0 | 0.00 | 0.00 | 0.00 | 78 | 1043.2 |
| 20260902185424 | 18 | 175 | 0.0 | 0.0 | 0.00 | 0.00 | 0.00 | 78 | 1043.0 |
| 20260902184924 | 18 | 174 | 0.0 | 0.0 | 0.00 | 0.00 | 0.00 | 78 | 1043.0 |
| 20260902184423 | 17 | 175 | 0.0 | 0.0 | 0.00 | 0.00 | 0.00 | 79 | 1043.0 |
| 20260902183922 | 17 | 174 | 0.0 | 0.0 | 0.00 | 0.00 | 0.00 | 78 | 1042.9 |
| 20260902183422 | 17 | 174 | 0.0 | 0.0 | 0.00 | 0.00 | 0.00 | 78 | 1042.9 |
| 20260902182921 | 18 | 174 | 0.0 | 0.0 | 0.00 | 0.00 | 0.00 | 78 | 1043.1 |
| 20260902182420 | 18 | 175 | 0.0 | 0.0 | 0.00 | 0.00 | 0.00 | 78 | 1043.2 |
| 20260902181920 | 18 | 174 | 0.0 | 0.0 | 0.00 | 0.00 | 0.00 | 77 | 1043.0 |
| 20260902181419 | 18 | 175 | 0.0 | 0.0 | 0.00 | 0.00 | 0.00 | 77 | 1043.1 |
| 20260902180919 | 17 | 175 | 0.0 | 0.0 | 0.00 | 0.00 | 0.00 | 78 | 1043.1 |
| 20260902180418 | 17 | 175 | 0.0 | 0.0 | 0.00 | 0.00 | 0.00 | 77 | 1043.0 |
| 20260902175918 | 18 | 175 | 0.0 | 0.0 | 0.00 | 0.00 | 0.00 | 76 | 1043.0 |
| 20260902175417 | 18 | 175 | 0.0 | 0.0 | 0.00 | 0.00 | 0.00 | 76 | 1042.9 |
| 20260902174917 | 18 | 175 | 0.0 | 0.0 | 0.00 | 0.00 | 0.00 | 75 | 1042.9 |
| 20260902174416 | 18 | 175 | 0.0 | 0.0 | 0.00 | 0.00 | 0.00 | 74 | 1043.0 |
| 20260902173915 | 19 | 175 | 0.0 | 0.0 | 0.00 | 0.00 | 0.00 | 74 | 1042.9 |
| 20260902173415 | 19 | 174 | 0.0 | 0.0 | 0.00 | 0.00 | 0.00 | 72 | 1042.9 |
| 20260902172914 | 20 | 175 | 0.0 | 0.0 | 0.00 | 0.00 | 0.00 | 72 | 1043.0 |
| 20260902172414 | 20 | 175 | 0.0 | 0.0 | 0.00 | 0.00 | 0.00 | 71 | 1042.8 |
| 20260902171352 | 20 | 174 | 0.0 | 0.0 | 0.00 | 0.00 | 0.00 | 70 | 1042.8 |
| 20260902170852 | 20 | 174 | 0.0 | 0.0 | 0.00 | 0.00 | 0.00 | 71 | 1042.8 |
| 20260902170351 | 20 | 174 | 0.0 | 0.0 | 0.00 | 0.00 | 0.00 | 70 | 1042.7 |
| 20260902165851 | 21 | 174 | 0.0 | 0.0 | 0.00 | 0.00 | 0.00 | 70 | 1042.9 |
| 20260902165350 | 21 | 174 | 0.0 | 0.0 | 0.00 | 0.00 | 0.00 | 69 | 1042.8 |
| 20260902164850 | 21 | 174 | 0.0 | 0.0 | 0.00 | 0.00 | 0.00 | 70 | 1042.9 |
| 20260902164349 | 20 | 174 | 0.0 | 0.0 | 0.00 | 0.00 | 0.00 | 70 | 1042.8 |
| 20260902163848 | 20 | 174 | 0.0 | 0.0 | 0.00 | 0.00 | 0.00 | 69 | 1042.8 |
| 20260902163348 | 21 | 174 | 0.0 | 0.0 | 0.00 | 0.00 | 0.00 | 69 | 1042.8 |
| 20260902162847 | 21 | 174 | 0.0 | 0.0 | 0.00 | 0.00 | 0.00 | 69 | 1042.8 |
| 20260902162347 | 21 | 174 | 0.0 | 0.0 | 0.00 | 0.00 | 0.00 | 68 | 1042.6 |
| 20260902161846 | 21 | 177 | 0.0 | 0.0 | 0.00 | 0.00 | 0.00 | 67 | 1042.9 |
| 20260902161346 | 21 | 168 | 0.0 | 0.0 | 0.00 | 0.00 | 0.00 | 67 | 1043.0 |
| 20260902160845 | 21 | 9 | 0.0 | 0.0 | 0.00 | 0.00 | 0.00 | 67 | 1042.9 |
| 20260902160345 | 21 | 191 | 0.0 | 0.0 | 0.00 | 0.00 | 0.00 | 66 | 1042.9 |
| 20260902155844 | 21 | 175 | 0.0 | 0.0 | 0.00 | 0.00 | 0.00 | 66 | 1042.7 |
| 20260902155344 | 22 | 8 | 1.6 | 3.2 | 0.00 | 0.00 | 0.00 | 65 | 1042.9 |
| 20260902154843 | 22 | 169 | 0.0 | 0.0 | 0.00 | 0.00 | 0.00 | 66 | 1042.8 |
| 20260902154342 | 22 | 172 | 0.0 | 0.0 | 0.00 | 0.00 | 0.00 | 65 | 1042.8 |
| 20260902153842 | 22 | 196 | 0.0 | 0.0 | 0.00 | 0.00 | 0.00 | 65 | 1042.8 |
| 20260902153341 | 22 | 13 | 0.0 | 0.0 | 0.00 | 0.00 | 0.00 | 64 | 1042.8 |
| 20260902152841 | 22 | 175 | 0.0 | 0.0 | 0.00 | 0.00 | 0.00 | 64 | 1042.9 |
| 20260902152340 | 22 | 186 | 0.0 | 0.0 | 0.00 | 0.00 | 0.00 | 64 | 1042.9 |
| 20260902151839 | 22 | 212 | 0.0 | 0.0 | 0.00 | 0.00 | 0.00 | 63 | 1043.2 |
| 20260902151339 | 22 | 271 | 0.0 | 0.0 | 0.00 | 0.00 | 0.00 | 63 | 1043.0 |
| 20260902150838 | 22 | 178 | 0.0 | 0.0 | 0.00 | 0.00 | 0.00 | 62 | 1043.0 |
| 20260902150338 | 23 | 5 | 1.6 | 3.2 | 0.00 | 0.00 | 0.00 | 63 | 1043.2 |
| 20260902145837 | 23 | 37 | 1.6 | 3.2 | 0.00 | 0.00 | 0.00 | 62 | 1043.0 |
| 20260902145337 | 22 | 155 | 1.6 | 1.6 | 0.00 | 0.00 | 0.00 | 62 | 1043.1 |
| 20260902144836 | 22 | 303 | 1.6 | 3.2 | 0.00 | 0.00 | 0.00 | 62 | 1043.2 |
| 20260902144336 | 23 | 136 | 3.2 | 6.4 | 0.00 | 0.00 | 0.00 | 62 | 1043.4 |
| 20260902143835 | 23 | 294 | 1.6 | 1.6 | 0.00 | 0.00 | 0.00 | 61 | 1043.3 |
| 20260902143335 | 22 | 36 | 1.6 | 1.6 | 0.00 | 0.00 | 0.00 | 63 | 1043.2 |
| 20260902142834 | 22 | 173 | 0.0 | 0.0 | 0.00 | 0.00 | 0.00 | 63 | 1043.5 |
| 20260902142333 | 22 | 192 | 0.0 | 0.0 | 0.00 | 0.00 | 0.00 | 62 | 1043.2 |
| 20260902141833 | 22 | 296 | 1.6 | 3.2 | 0.00 | 0.00 | 0.00 | 62 | 1043.3 |
| 20260902141332 | 22 | 32 | 3.2 | 3.2 | 0.00 | 0.00 | 0.00 | 63 | 1043.3 |
| 20260902140832 | 23 | 311 | 3.2 | 6.4 | 0.00 | 0.00 | 0.00 | 62 | 1043.5 |
| 20260902140331 | 23 | 194 | 0.0 | 0.0 | 0.00 | 0.00 | 0.00 | 62 | 1043.7 |
| 20260902135831 | 23 | 163 | 0.0 | 0.0 | 0.00 | 0.00 | 0.00 | 61 | 1043.8 |
| 20260902135330 | 23 | 169 | 0.0 | 0.0 | 0.00 | 0.00 | 0.00 | 62 | 1043.9 |
| 20260902134830 | 23 | 161 | 0.0 | 0.0 | 0.00 | 0.00 | 0.00 | 62 | 1043.7 |
| 20260902134329 | 23 | 191 | 0.0 | 0.0 | 0.00 | 0.00 | 0.00 | 63 | 1043.5 |
| 20260902133828 | 23 | 134 | 0.0 | 0.0 | 0.00 | 0.00 | 0.00 | 62 | 1043.9 |
| 20260902133328 | 23 | 145 | 1.6 | 3.2 | 0.00 | 0.00 | 0.00 | 63 | 1043.8 |
| 20260902132828 | 23 | 42 | 3.2 | 4.8 | 0.00 | 0.00 | 0.00 | 60 | 1044.2 |
| 20260902132327 | 23 | 148 | 1.6 | 1.6 | 0.00 | 0.00 | 0.00 | 59 | 1044.0 |
| 20260902131826 | 23 | 178 | 0.0 | 0.0 | 0.00 | 0.00 | 0.00 | 60 | 1044.2 |
| 20260902131326 | 23 | 17 | 1.6 | 3.2 | 0.00 | 0.00 | 0.00 | 60 | 1044.1 |
| 20260902130825 | 23 | 211 | 1.6 | 3.2 | 0.00 | 0.00 | 0.00 | 62 | 1044.2 |
| 20260902130324 | 23 | 213 | 1.6 | 3.2 | 0.00 | 0.00 | 0.00 | 62 | 1044.2 |
| 20260902125824 | 23 | 166 | 3.2 | 4.8 | 0.00 | 0.00 | 0.00 | 61 | 1044.2 |
| 20260902125323 | 23 | 127 | 1.6 | 1.6 | 0.00 | 0.00 | 0.00 | 62 | 1044.4 |
| 20260902124823 | 23 | 183 | 3.2 | 6.4 | 0.00 | 0.00 | 0.00 | 61 | 1044.1 |
| 20260902124322 | 23 | 30 | 1.6 | 3.2 | 0.00 | 0.00 | 0.00 | 62 | 1044.3 |
| 20260902123822 | 23 | 163 | 1.6 | 3.2 | 0.00 | 0.00 | 0.00 | 63 | 1044.2 |
| 20260902123321 | 23 | 126 | 1.6 | 1.6 | 0.00 | 0.00 | 0.00 | 62 | 1044.1 |
| 20260902122821 | 23 | 163 | 0.0 | 0.0 | 0.00 | 0.00 | 0.00 | 64 | 1044.4 |
| 20260902122320 | 23 | 65 | 1.6 | 3.2 | 0.00 | 0.00 | 0.00 | 62 | 1044.3 |
| 20260902121819 | 22 | 151 | 0.0 | 0.0 | 0.00 | 0.00 | 0.00 | 65 | 1044.2 |
| 20260902121319 | 22 | 200 | 0.0 | 0.0 | 0.00 | 0.00 | 0.00 | 68 | 1044.2 |
| 20260902120818 | 21 | 46 | 1.6 | 3.2 | 0.00 | 0.00 | 0.00 | 69 | 1044.0 |
| 20260902120318 | 21 | 30 | 0.0 | 3.2 | 0.00 | 0.00 | 0.00 | 69 | 1043.9 |
| 20260902115817 | 22 | 192 | 0.0 | 0.0 | 0.00 | 0.00 | 0.00 | 69 | 1044.0 |
| 20260902115317 | 22 | 157 | 0.0 | 0.0 | 0.00 | 0.00 | 0.00 | 67 | 1044.0 |
| 20260902114816 | 23 | 195 | 0.0 | 0.0 | 0.00 | 0.00 | 0.00 | 66 | 1044.2 |
| 20260902114315 | 23 | 190 | 0.0 | 1.6 | 0.00 | 0.00 | 0.00 | 65 | 1044.0 |
| 20260902113815 | 22 | 327 | 1.6 | 3.2 | 0.00 | 0.00 | 0.00 | 61 | 1044.1 |
| 20260902113314 | 23 | 48 | 3.2 | 4.8 | 0.00 | 0.00 | 0.00 | 60 | 1044.1 |
| 20260902112814 | 23 | 342 | 1.6 | 3.2 | 0.00 | 0.00 | 0.00 | 59 | 1044.1 |
| 20260902112313 | 23 | 141 | 0.0 | 0.0 | 0.00 | 0.00 | 0.00 | 61 | 1044.1 |
| 20260902111813 | 23 | 222 | 0.0 | 0.0 | 0.00 | 0.00 | 0.00 | 59 | 1044.0 |
| 20260902111312 | 23 | 129 | 0.0 | 1.6 | 0.00 | 0.00 | 0.00 | 63 | 1044.1 |
| 20260902110811 | 23 | 168 | 4.8 | 11.3 | 0.00 | 0.00 | 0.00 | 61 | 1044.1 |
| 20260902110311 | 23 | 86 | 1.6 | 3.2 | 0.00 | 0.00 | 0.00 | 60 | 1044.2 |
| 20260902105810 | 23 | 345 | 0.0 | 1.6 | 0.00 | 0.00 | 0.00 | 62 | 1044.1 |
| 20260902105310 | 23 | 147 | 0.0 | 0.0 | 0.00 | 0.00 | 0.00 | 63 | 1044.0 |
| 20260902104809 | 22 | 169 | 0.0 | 0.0 | 0.00 | 0.00 | 0.00 | 65 | 1044.1 |
| 20260902104309 | 22 | 85 | 1.6 | 1.6 | 0.00 | 0.00 | 0.00 | 64 | 1044.2 |
| 20260902103808 | 23 | 121 | 0.0 | 0.0 | 0.00 | 0.00 | 0.00 | 64 | 1044.3 |
| 20260902103307 | 22 | 161 | 0.0 | 0.0 | 0.00 | 0.00 | 0.00 | 66 | 1044.5 |
| 20260902102807 | 22 | 22 | 3.2 | 3.2 | 0.00 | 0.00 | 0.00 | 65 | 1044.5 |
| 20260902102308 | 22 | 274 | 1.6 | 1.6 | 0.00 | 0.00 | 0.00 | 65 | 1044.4 |
| 20260902101806 | 22 | 199 | 3.2 | 4.8 | 0.00 | 0.00 | 0.00 | 64 | 1044.3 |
| 20260902101305 | 22 | 174 | 0.0 | 0.0 | 0.00 | 0.00 | 0.00 | 64 | 1044.4 |
| 20260902100805 | 22 | 114 | 1.6 | 3.2 | 0.00 | 0.00 | 0.00 | 64 | 1044.5 |
| 20260902100304 | 22 | 184 | 0.0 | 0.0 | 0.00 | 0.00 | 0.00 | 66 | 1044.3 |
| 20260902095803 | 22 | 190 | 4.8 | 6.4 | 0.00 | 0.00 | 0.00 | 65 | 1044.4 |
| 20260902095306 | 22 | 172 | 8.0 | 9.7 | 0.00 | 0.00 | 0.00 | 64 | 1044.7 |
| 20260902094802 | 22 | 265 | 3.2 | 4.8 | 0.00 | 0.00 | 0.00 | 64 | 1044.5 |
| 20260902094302 | 22 | 195 | 0.0 | 0.0 | 0.00 | 0.00 | 0.00 | 66 | 1044.3 |
| 20260902093801 | 21 | 171 | 0.0 | 0.0 | 0.00 | 0.00 | 0.00 | 67 | 1044.5 |
| 20260902093301 | 21 | 202 | 0.0 | 1.6 | 0.00 | 0.00 | 0.00 | 67 | 1044.7 |
| 20260902092800 | 22 | 191 | 4.8 | 6.4 | 0.00 | 0.00 | 0.00 | 67 | 1044.6 |
| 20260902092300 | 22 | 177 | 1.6 | 1.6 | 0.00 | 0.00 | 0.00 | 67 | 1044.6 |
| 20260902091759 | 22 | 299 | 1.6 | 3.2 | 0.00 | 0.00 | 0.00 | 66 | 1044.6 |
| 20260902091258 | 22 | 165 | 0.0 | 1.6 | 0.00 | 0.00 | 0.00 | 67 | 1044.6 |
| 20260902090758 | 22 | 188 | 0.0 | 1.6 | 0.00 | 0.00 | 0.00 | 67 | 1044.5 |
| 20260902090257 | 21 | 185 | 0.0 | 0.0 | 0.00 | 0.00 | 0.00 | 69 | 1044.8 |
| 20260902085757 | 20 | 309 | 1.6 | 1.6 | 0.00 | 0.00 | 0.00 | 70 | 1044.8 |
| 20260902085256 | 20 | 164 | 0.0 | 0.0 | 0.00 | 0.00 | 0.00 | 72 | 1044.8 |
| 20260902084756 | 20 | 148 | 0.0 | 0.0 | 0.00 | 0.00 | 0.00 | 72 | 1044.6 |
| 20260902084255 | 20 | 16 | 3.2 | 3.2 | 0.00 | 0.00 | 0.00 | 70 | 1044.7 |
| 20260902083754 | 21 | 86 | 1.6 | 3.2 | 0.00 | 0.00 | 0.00 | 70 | 1044.7 |
| 20260902083254 | 21 | 49 | 4.8 | 6.4 | 0.00 | 0.00 | 0.00 | 69 | 1044.8 |
| 20260902082753 | 20 | 167 | 0.0 | 0.0 | 0.00 | 0.00 | 0.00 | 71 | 1044.8 |
| 20260902082253 | 20 | 23 | 0.0 | 1.6 | 0.00 | 0.00 | 0.00 | 71 | 1044.7 |
| 20260902081752 | 20 | 163 | 0.0 | 0.0 | 0.00 | 0.00 | 0.00 | 72 | 1044.8 |
| 20260902081252 | 20 | 194 | 3.2 | 4.8 | 0.00 | 0.00 | 0.00 | 71 | 1044.8 |
| 20260902080751 | 20 | 194 | 0.0 | 0.0 | 0.00 | 0.00 | 0.00 | 71 | 1044.6 |
| 20260902080251 | 20 | 137 | 0.0 | 0.0 | 0.00 | 0.00 | 0.00 | 69 | 1044.7 |
| 20260902075750 | 21 | 103 | 0.0 | 0.0 | 0.00 | 0.00 | 0.00 | 69 | 1044.8 |
| 20260902075249 | 20 | 47 | 1.6 | 1.6 | 0.00 | 0.00 | 0.00 | 69 | 1044.5 |
| 20260902074749 | 20 | 149 | 0.0 | 0.0 | 0.00 | 0.00 | 0.00 | 70 | 1044.6 |
| 20260902074248 | 20 | 351 | 1.6 | 3.2 | 0.00 | 0.00 | 0.00 | 70 | 1044.9 |
| 20260902073748 | 20 | 161 | 1.6 | 1.6 | 0.00 | 0.00 | 0.00 | 69 | 1044.7 |
| 20260902073247 | 20 | 165 | 4.8 | 6.4 | 0.00 | 0.00 | 0.00 | 69 | 1044.6 |
| 20260902072747 | 20 | 172 | 3.2 | 4.8 | 0.00 | 0.00 | 0.00 | 70 | 1044.7 |
| 20260902072246 | 20 | 173 | 3.2 | 4.8 | 0.00 | 0.00 | 0.00 | 72 | 1044.6 |
| 20260902071746 | 20 | 165 | 1.6 | 3.2 | 0.00 | 0.00 | 0.00 | 72 | 1044.5 |
| 20260902071245 | 20 | 190 | 1.6 | 3.2 | 0.00 | 0.00 | 0.00 | 72 | 1044.6 |
| 20260902070744 | 19 | 191 | 1.6 | 3.2 | 0.00 | 0.00 | 0.00 | 72 | 1044.5 |
| 20260902070244 | 19 | 165 | 0.0 | 1.6 | 0.00 | 0.00 | 0.00 | 73 | 1044.4 |
| 20260902065743 | 18 | 192 | 0.0 | 1.6 | 0.00 | 0.00 | 0.00 | 74 | 1044.4 |
| 20260902065243 | 18 | 171 | 0.0 | 1.6 | 0.00 | 0.00 | 0.00 | 74 | 1044.5 |
| 20260902064742 | 18 | 181 | 3.2 | 4.8 | 0.00 | 0.00 | 0.00 | 74 | 1044.4 |
| 20260902064242 | 18 | 181 | 1.6 | 3.2 | 0.00 | 0.00 | 0.00 | 75 | 1044.3 |
| 20260902063741 | 18 | 163 | 0.0 | 0.0 | 0.00 | 0.00 | 0.00 | 76 | 1044.3 |
| 20260902063241 | 17 | 190 | 1.6 | 3.2 | 0.00 | 0.00 | 0.00 | 77 | 1044.4 |
| 20260902062740 | 17 | 165 | 0.0 | 0.0 | 0.00 | 0.00 | 0.00 | 78 | 1044.5 |
| 20260902062240 | 16 | 175 | 1.6 | 1.6 | 0.00 | 0.00 | 0.00 | 79 | 1044.3 |
| 20260902061740 | 16 | 169 | 1.6 | 3.2 | 0.00 | 0.00 | 0.00 | 80 | 1044.4 |
| 20260902061238 | 16 | 169 | 1.6 | 1.6 | 0.00 | 0.00 | 0.00 | 80 | 1044.2 |
| 20260902060738 | 16 | 161 | 1.6 | 3.2 | 0.00 | 0.00 | 0.00 | 81 | 1044.1 |
| 20260902060237 | 15 | 318 | 0.0 | 1.6 | 0.00 | 0.00 | 0.00 | 81 | 1044.2 |
| 20260902055737 | 15 | 185 | 0.0 | 0.0 | 0.00 | 0.00 | 0.00 | 81 | 1044.2 |
| 20260902055236 | 15 | 185 | 0.0 | 0.0 | 0.00 | 0.00 | 0.00 | 82 | 1044.4 |
| 20260902054736 | 15 | 181 | 0.0 | 0.0 | 0.00 | 0.00 | 0.00 | 82 | 1044.3 |
| 20260902054235 | 15 | 181 | 0.0 | 0.0 | 0.00 | 0.00 | 0.00 | 83 | 1044.3 |
| 20260902053735 | 15 | 195 | 1.6 | 3.2 | 0.00 | 0.00 | 0.00 | 82 | 1044.1 |
| 20260902053234 | 15 | 180 | 0.0 | 0.0 | 0.00 | 0.00 | 0.00 | 85 | 1044.3 |
| 20260902052734 | 14 | 170 | 0.0 | 0.0 | 0.00 | 0.00 | 0.00 | 87 | 1044.4 |
| 20260902052233 | 13 | 174 | 0.0 | 0.0 | 0.00 | 0.00 | 0.00 | 92 | 1044.2 |
| 20260902051733 | 13 | 177 | 0.0 | 0.0 | 0.00 | 0.00 | 0.00 | 94 | 1044.0 |
| 20260902051232 | 12 | 179 | 0.0 | 0.0 | 0.00 | 0.00 | 0.00 | 95 | 1044.2 |
| 20260902050732 | 12 | 174 | 0.0 | 0.0 | 0.00 | 0.00 | 0.00 | 96 | 1043.9 |
| 20260902050231 | 11 | 196 | 0.0 | 0.0 | 0.00 | 0.00 | 0.00 | 96 | 1044.1 |
| 20260902045730 | 11 | 196 | 0.0 | 0.0 | 0.00 | 0.00 | 0.00 | 96 | 1044.2 |
| 20260902045230 | 11 | 196 | 0.0 | 0.0 | 0.00 | 0.00 | 0.00 | 96 | 1044.2 |
| 20260902044729 | 11 | 195 | 0.0 | 0.0 | 0.00 | 0.00 | 0.00 | 96 | 1044.2 |
| 20260902044229 | 11 | 195 | 0.0 | 0.0 | 0.00 | 0.00 | 0.00 | 96 | 1044.3 |
| 20260902043728 | 11 | 194 | 0.0 | 0.0 | 0.00 | 0.00 | 0.00 | 96 | 1044.3 |
| 20260902043228 | 11 | 194 | 0.0 | 0.0 | 0.00 | 0.00 | 0.00 | 96 | 1044.3 |
| 20260902042727 | 11 | 198 | 0.0 | 0.0 | 0.00 | 0.00 | 0.00 | 96 | 1044.0 |
| 20260902042226 | 11 | 194 | 0.0 | 0.0 | 0.00 | 0.00 | 0.00 | 96 | 1044.2 |
| 20260902041726 | 11 | 190 | 0.0 | 0.0 | 0.00 | 0.00 | 0.00 | 96 | 1043.8 |
| 20260902041225 | 11 | 205 | 0.0 | 0.0 | 0.00 | 0.00 | 0.00 | 96 | 1044.1 |
| 20260902040725 | 11 | 199 | 0.0 | 0.0 | 0.00 | 0.00 | 0.00 | 96 | 1044.1 |
| 20260902040224 | 11 | 198 | 0.0 | 0.0 | 0.00 | 0.00 | 0.00 | 96 | 1043.9 |
| 20260902035724 | 11 | 198 | 0.0 | 0.0 | 0.00 | 0.00 | 0.00 | 96 | 1043.9 |
| 20260902035223 | 11 | 198 | 0.0 | 0.0 | 0.00 | 0.00 | 0.00 | 96 | 1044.1 |
| 20260902034723 | 11 | 198 | 0.0 | 0.0 | 0.00 | 0.00 | 0.00 | 96 | 1043.8 |
| 20260902034222 | 11 | 198 | 0.0 | 0.0 | 0.00 | 0.00 | 0.00 | 96 | 1043.8 |
| 20260902033721 | 11 | 198 | 0.0 | 0.0 | 0.00 | 0.00 | 0.00 | 96 | 1044.0 |
| 20260902033221 | 11 | 198 | 0.0 | 0.0 | 0.00 | 0.00 | 0.00 | 95 | 1043.8 |
| 20260902032720 | 11 | 199 | 0.0 | 0.0 | 0.00 | 0.00 | 0.00 | 95 | 1043.9 |
| 20260902032220 | 11 | 199 | 0.0 | 0.0 | 0.00 | 0.00 | 0.00 | 95 | 1043.7 |
| 20260902031719 | 11 | 200 | 0.0 | 0.0 | 0.00 | 0.00 | 0.00 | 95 | 1043.9 |
| 20260902031219 | 11 | 200 | 0.0 | 0.0 | 0.00 | 0.00 | 0.00 | 95 | 1043.9 |
| 20260902030718 | 11 | 200 | 0.0 | 0.0 | 0.00 | 0.00 | 0.00 | 95 | 1043.9 |
| 20260902030218 | 11 | 194 | 0.0 | 0.0 | 0.00 | 0.00 | 0.00 | 95 | 1043.9 |
| 20260902025717 | 11 | 190 | 0.0 | 0.0 | 0.00 | 0.00 | 0.00 | 95 | 1044.0 |
| 20260902025217 | 11 | 193 | 0.0 | 0.0 | 0.00 | 0.00 | 0.00 | 95 | 1043.9 |
| 20260902024716 | 11 | 200 | 0.0 | 0.0 | 0.00 | 0.00 | 0.00 | 95 | 1043.6 |
| 20260902024216 | 12 | 192 | 0.0 | 0.0 | 0.00 | 0.00 | 0.00 | 95 | 1043.9 |
| 20260902023715 | 12 | 201 | 0.0 | 0.0 | 0.00 | 0.00 | 0.00 | 96 | 1043.9 |
| 20260902023215 | 12 | 190 | 0.0 | 0.0 | 0.00 | 0.00 | 0.00 | 96 | 1043.8 |
| 20260902022714 | 12 | 190 | 0.0 | 0.0 | 0.00 | 0.00 | 0.00 | 96 | 1044.0 |
| 20260902022213 | 11 | 190 | 0.0 | 0.0 | 0.00 | 0.00 | 0.00 | 96 | 1044.1 |
| 20260902021713 | 11 | 190 | 0.0 | 0.0 | 0.00 | 0.00 | 0.00 | 96 | 1044.0 |
| 20260902021212 | 12 | 190 | 0.0 | 0.0 | 0.00 | 0.00 | 0.00 | 96 | 1043.8 |
| 20260902020712 | 12 | 190 | 0.0 | 0.0 | 0.00 | 0.00 | 0.00 | 96 | 1044.0 |
| 20260902020211 | 12 | 190 | 0.0 | 0.0 | 0.00 | 0.00 | 0.00 | 96 | 1044.0 |
| 20260902015711 | 11 | 190 | 0.0 | 0.0 | 0.00 | 0.00 | 0.00 | 96 | 1043.9 |
| 20260902015210 | 11 | 190 | 0.0 | 0.0 | 0.00 | 0.00 | 0.00 | 96 | 1043.8 |
| 20260902014710 | 12 | 190 | 0.0 | 0.0 | 0.00 | 0.00 | 0.00 | 96 | 1044.1 |
| 20260902014209 | 12 | 190 | 0.0 | 0.0 | 0.00 | 0.00 | 0.00 | 96 | 1044.0 |
| 20260902013708 | 12 | 190 | 0.0 | 0.0 | 0.00 | 0.00 | 0.00 | 96 | 1044.3 |
| 20260902013208 | 12 | 190 | 0.0 | 0.0 | 0.00 | 0.00 | 0.00 | 96 | 1043.9 |
| 20260902012707 | 12 | 190 | 0.0 | 0.0 | 0.00 | 0.00 | 0.00 | 96 | 1044.0 |
| 20260902012207 | 12 | 190 | 0.0 | 0.0 | 0.00 | 0.00 | 0.00 | 95 | 1044.1 |
| 20260902011706 | 11 | 191 | 0.0 | 0.0 | 0.00 | 0.00 | 0.00 | 95 | 1044.0 |
| 20260902011205 | 12 | 191 | 0.0 | 0.0 | 0.00 | 0.00 | 0.00 | 95 | 1044.0 |
| 20260902010705 | 11 | 191 | 0.0 | 0.0 | 0.00 | 0.00 | 0.00 | 95 | 1044.0 |
| 20260902010205 | 11 | 191 | 0.0 | 0.0 | 0.00 | 0.00 | 0.00 | 95 | 1044.2 |
| 20260902005704 | 12 | 191 | 0.0 | 0.0 | 0.00 | 0.00 | 0.00 | 95 | 1043.8 |
| 20260902005203 | 12 | 191 | 0.0 | 0.0 | 0.00 | 0.00 | 0.00 | 95 | 1043.9 |
| 20260902004703 | 12 | 191 | 0.0 | 0.0 | 0.00 | 0.00 | 0.00 | 95 | 1043.8 |
| 20260902004202 | 12 | 191 | 0.0 | 0.0 | 0.00 | 0.00 | 0.00 | 95 | 1043.8 |
| 20260902003702 | 12 | 192 | 0.0 | 0.0 | 0.00 | 0.00 | 0.00 | 95 | 1044.0 |
| 20260902003201 | 12 | 192 | 0.0 | 0.0 | 0.00 | 0.00 | 0.00 | 94 | 1044.0 |
| 20260902002701 | 12 | 192 | 0.0 | 0.0 | 0.00 | 0.00 | 0.00 | 94 | 1044.2 |
| 20260902002200 | 12 | 195 | 0.0 | 0.0 | 0.00 | 0.00 | 0.00 | 94 | 1044.2 |
| 20260902001700 | 12 | 195 | 0.0 | 0.0 | 0.00 | 0.00 | 0.00 | 94 | 1043.9 |
| 20260902001159 | 12 | 195 | 0.0 | 0.0 | 0.00 | 0.00 | 0.00 | 94 | 1044.1 |
| 20260902000658 | 12 | 195 | 0.0 | 0.0 | 0.00 | 0.00 | 0.00 | 94 | 1044.1 |
| 20260902000158 | 12 | 208 | 0.0 | 0.0 | 0.00 | 0.00 | 0.00 | 94 | 1044.1 |
| 20260901235657 | 12 | 200 | 0.0 | 0.0 | 0.00 | 0.00 | 0.00 | 94 | 1044.1 |
| 20260901235157 | 12 | 193 | 0.0 | 0.0 | 0.00 | 0.00 | 0.00 | 94 | 1044.0 |
| 20260901234656 | 12 | 203 | 0.0 | 0.0 | 0.00 | 0.00 | 0.00 | 94 | 1044.0 |
| 20260901234156 | 12 | 237 | 0.0 | 0.0 | 0.00 | 0.00 | 0.00 | 94 | 1043.9 |
| 20260901233655 | 12 | 199 | 0.0 | 0.0 | 0.00 | 0.00 | 0.00 | 94 | 1044.1 |
| 20260901233155 | 12 | 215 | 0.0 | 0.0 | 0.00 | 0.00 | 0.00 | 94 | 1043.8 |
| 20260901232654 | 12 | 204 | 0.0 | 0.0 | 0.00 | 0.00 | 0.00 | 93 | 1043.9 |
| 20260901232153 | 12 | 204 | 0.0 | 0.0 | 0.00 | 0.00 | 0.00 | 93 | 1043.8 |
| 20260901231653 | 12 | 204 | 0.0 | 0.0 | 0.00 | 0.00 | 0.00 | 93 | 1043.8 |
| 20260901231152 | 12 | 204 | 0.0 | 0.0 | 0.00 | 0.00 | 0.00 | 93 | 1044.0 |
| 20260901230650 | 12 | 208 | 0.0 | 0.0 | 0.00 | 0.00 | 0.00 | 93 | 1044.0 |
| 20260901230149 | 12 | 204 | 0.0 | 0.0 | 0.00 | 0.00 | 0.00 | 92 | 1044.0 |
| 20260901225649 | 13 | 204 | 0.0 | 0.0 | 0.00 | 0.00 | 0.00 | 92 | 1044.0 |
| 20260901225148 | 13 | 205 | 0.0 | 0.0 | 0.00 | 0.00 | 0.00 | 92 | 1044.0 |
| 20260901224648 | 13 | 197 | 0.0 | 0.0 | 0.00 | 0.00 | 0.00 | 92 | 1043.9 |
| 20260901224147 | 13 | 170 | 0.0 | 0.0 | 0.00 | 0.00 | 0.00 | 93 | 1043.8 |
| 20260901223647 | 13 | 170 | 0.0 | 0.0 | 0.00 | 0.00 | 0.00 | 92 | 1043.7 |
| 20260901223146 | 13 | 170 | 0.0 | 0.0 | 0.00 | 0.00 | 0.00 | 92 | 1043.9 |
| 20260901222646 | 13 | 170 | 0.0 | 0.0 | 0.00 | 0.00 | 0.00 | 92 | 1043.7 |
| 20260901222145 | 13 | 170 | 0.0 | 0.0 | 0.00 | 0.00 | 0.00 | 92 | 1043.9 |
| 20260901221645 | 13 | 170 | 0.0 | 0.0 | 0.00 | 0.00 | 0.00 | 92 | 1043.8 |
| 20260901221144 | 13 | 171 | 0.0 | 0.0 | 0.00 | 0.00 | 0.00 | 91 | 1043.8 |
| 20260901220644 | 13 | 171 | 0.0 | 0.0 | 0.00 | 0.00 | 0.00 | 91 | 1044.0 |
| 20260901220143 | 13 | 171 | 0.0 | 0.0 | 0.00 | 0.00 | 0.00 | 91 | 1043.9 |
| 20260901215642 | 13 | 171 | 0.0 | 0.0 | 0.00 | 0.00 | 0.00 | 91 | 1043.8 |
| 20260901215142 | 13 | 171 | 0.0 | 0.0 | 0.00 | 0.00 | 0.00 | 91 | 1043.7 |
| 20260901214641 | 13 | 171 | 0.0 | 0.0 | 0.00 | 0.00 | 0.00 | 91 | 1043.6 |
| 20260901214141 | 13 | 171 | 0.0 | 0.0 | 0.00 | 0.00 | 0.00 | 90 | 1043.7 |
| 20260901213640 | 13 | 171 | 0.0 | 0.0 | 0.00 | 0.00 | 0.00 | 90 | 1043.7 |
| 20260901213140 | 13 | 171 | 0.0 | 0.0 | 0.00 | 0.00 | 0.00 | 90 | 1043.7 |
| 20260901212640 | 13 | 171 | 0.0 | 0.0 | 0.00 | 0.00 | 0.00 | 90 | 1043.7 |
| 20260901212139 | 13 | 171 | 0.0 | 0.0 | 0.00 | 0.00 | 0.00 | 90 | 1044.0 |
| 20260901211639 | 13 | 171 | 0.0 | 0.0 | 0.00 | 0.00 | 0.00 | 89 | 1044.0 |
| 20260901211138 | 13 | 171 | 0.0 | 0.0 | 0.00 | 0.00 | 0.00 | 89 | 1043.7 |
| 20260901210638 | 14 | 171 | 0.0 | 0.0 | 0.00 | 0.00 | 0.00 | 89 | 1043.9 |
| 20260901210137 | 14 | 171 | 0.0 | 0.0 | 0.00 | 0.00 | 0.00 | 89 | 1043.8 |
| 20260901205637 | 14 | 171 | 0.0 | 0.0 | 0.00 | 0.00 | 0.00 | 89 | 1043.9 |
| 20260901205136 | 14 | 171 | 0.0 | 0.0 | 0.00 | 0.00 | 0.00 | 89 | 1043.8 |
| 20260901204636 | 14 | 171 | 0.0 | 0.0 | 0.00 | 0.00 | 0.00 | 89 | 1043.9 |
| 20260901204135 | 14 | 171 | 0.0 | 0.0 | 0.00 | 0.00 | 0.00 | 88 | 1043.8 |
| 20260901203635 | 14 | 171 | 0.0 | 0.0 | 0.00 | 0.00 | 0.00 | 88 | 1043.9 |
| 20260901203135 | 14 | 171 | 0.0 | 0.0 | 0.00 | 0.00 | 0.00 | 88 | 1043.8 |
| 20260901202634 | 14 | 171 | 0.0 | 0.0 | 0.00 | 0.00 | 0.00 | 88 | 1044.0 |
| 20260901202134 | 14 | 171 | 0.0 | 0.0 | 0.00 | 0.00 | 0.00 | 88 | 1043.8 |
| 20260901201633 | 15 | 171 | 0.0 | 0.0 | 0.00 | 0.00 | 0.00 | 87 | 1043.9 |
| 20260901201133 | 15 | 171 | 0.0 | 0.0 | 0.00 | 0.00 | 0.00 | 87 | 1043.8 |
| 20260901200632 | 15 | 171 | 0.0 | 0.0 | 0.00 | 0.00 | 0.00 | 86 | 1043.7 |
| 20260901200132 | 15 | 171 | 0.0 | 0.0 | 0.00 | 0.00 | 0.00 | 86 | 1043.6 |
| 20260901195631 | 15 | 171 | 0.0 | 0.0 | 0.00 | 0.00 | 0.00 | 86 | 1043.8 |
| 20260901195131 | 15 | 171 | 0.0 | 0.0 | 0.00 | 0.00 | 0.00 | 85 | 1043.7 |
| 20260901194630 | 15 | 171 | 0.0 | 0.0 | 0.00 | 0.00 | 0.00 | 85 | 1043.8 |
| 20260901194130 | 15 | 171 | 0.0 | 0.0 | 0.00 | 0.00 | 0.00 | 84 | 1044.0 |
| 20260901193629 | 16 | 171 | 0.0 | 0.0 | 0.00 | 0.00 | 0.00 | 84 | 1043.7 |
| 20260901193129 | 16 | 171 | 0.0 | 0.0 | 0.00 | 0.00 | 0.00 | 83 | 1043.6 |